FENGYUN 1C DEB

Satellite information

Favourite Embed

Satellite Type and Status

DEBRISIN ORBIT

Key statistics

Satellite FENGYUN 1C DEB at a glance.

Uptime

9714

Days in orbit

Revolutions

≈ 14.6

Per day

Orbit

SSO

Sun Synchronous Orbit

Inclination

98.8

Latest

Satellite identification and parameters

Extended collection of information and parameters for FENGYUN 1C DEB.

Object identification

Identified? True

Debris? True

Object name: FENGYUN 1C DEB

International designator: 1999-025EA

Object number (NORAD): 29832

Object ID (CCSDS): 29832

Country: PEOPLES REPUBLIC OF CHINA (PRC)

Current information (Y/N): Y

RCS size: SMALL

Orbital parameters

Period: 98.863 minutes

Inclination: 98.8194 deg

SMA: 7082.456 km

Apoapsis: 840.464 km

Periapsis: 568.179 km

RAAN: 97.7156 deg

Eccentricy: 0.01922246

Argument of periapsis: 284.4192 deg

Mean anomaly: 73.574 deg

Mean motion: 14.56555074 rev/day

Mean motion (dot): 0.00001338 rev/day2

B* drag term: 0.00024525392 1/REarth

Two-line elements (TLE)

Creation date: Dec. 12, 2025, 10:14 a.m.

Reference frame: TEME

Reference center: EARTH

Epoch: Dec. 12, 2025, 7:31 a.m. UTC

TLE line 0: 0 FENGYUN 1C DEB

TLE line 1: 1 29832U 99025EA 25346.31362313 .00001338 00000-0 24525-3 0 9997

TLE line 2: 2 29832 98.8194 97.7156 0192225 284.4192 73.5740 14.56555074 2494

Live tracking on map

Real-time ground track for satellite FENGYUN 1C DEB.

In-orbit conjunctions

A list of the most updated potential collisions computed for object FENGYUN 1C DEB.

Target Orbit TCA Probability of collision Miss distance Type
ADEOS 2 SSO 2025-03-04 18:16:48 0.0001171082 670.0 (m) PAYLOAD

Associated space launch

Chinese polar orbiting meteorological satellite

FENGYUN 1C DEB was lifted into orbit during the mission ‘Long March 4B | Feng Yun 1C’, on board a Long March 4B space rocket.

The launch took place on May 10, 1999, 1:33 a.m. from Launch Complex 7.

For more information about the launch, click the button.

Launch to space Long March 4B | Feng Yun 1C
Long March 4B | Feng Yun 1C

Agency: N/A

Status: Launch Successful

Launch date: May 10, 1999, 1:33 a.m. UTC

Rocket: Long March 4B

Launch pad: Launch Complex 7

Location: Taiyuan Satellite Launch Center, People's Republic of China

...

Latest news about this satellite

There are no fresh news available about this satellite. Check back as we update our databases every day.


Newsletter sign-up

Weekly statistics, charts and insights to help you stay on top of the space industry.